Spencer, VA

6:51 PM EDT on August 28, 2016 (GMT -0400)
Blue Ridge

Weather History for KMTV - January, 2013

Change the Weather History Date:

Sunday, January 13, 2013

  Actual Average (KGSO) Record (KGSO)
Temperature  
Mean Temperature 62 °F 39 °F  
Max Temperature 73 °F 48 °F 76 °F (1911)
Min Temperature 51 °F 29 °F 6 °F (1962)
Degree Days  
Heating Degree Days 3 26  
Month to date heating degree days 338  
Since 1 July heating degree days 1752  
Cooling Degree Days 0 0  
Month to date cooling degree days 0  
Year to date cooling degree days 0  
Growing Degree Days 12 (Base 50)    
Moisture  
Dew Point 57 °F    
Average Humidity 86    
Maximum Humidity 100    
Minimum Humidity 57    
Precipitation  
Precipitation 0.00 in 0.11 in 1.46 in (1968)
Month to date precipitation 1.30  
Year to date precipitation 1.30  
Snow  
Snow 0.00 in 0.10 in 3.10 in (1982)
Month to date snowfall 1.3  
Since 1 July snowfall 2.2  
Snow Depth -    
Sea Level Pressure  
Sea Level Pressure 30.08 in    
Wind  
Wind Speed 2 mph (SSW)    
Max Wind Speed 10 mph    
Max Gust Speed 20 mph    
Visibility 6 miles    
Events Fog    
T = Trace of Precipitation, MM = Missing Value Source: NWS Daily Summary

Daily Weather History Graph

Daily Weather History Graph

Search for Another Location

Airport or City:

Trip Planner

Search our weather history database for the weather conditions in past years. The results will help you decide how hot, cold, wet, or windy it might be!

Date:

Astronomy

Jan. 13, 2013 Rise Set
Actual Time 7:31 AM EST 5:26 PM EST
Civil Twilight 7:03 AM EST 5:54 PM EST
Nautical Twilight 6:31 AM EST 6:26 PM EST
Astronomical Twilight 6:00 AM EST 6:57 PM EST
Moon 8:33 AM EST (1/13) 7:57 PM EST (1/13)
Length of Visible Light 10h 50m
Length of Day
9h 54m
Waxing Crescent, 5% of the Moon is Illuminated
Jan 13
Waxing Crescent
Jan 18
First Quarter
Jan 26
Full
Feb 3
Last Quarter
Feb 10
New

Hourly Weather History & Observations

Time (EST) Temp. Dew Point Humidity Pressure Visibility Wind Dir Wind Speed Gust Speed Precip Events Conditions
12:15 AM 53.6 °F 53.6 °F 100% 30.11 in 0.2 mi Calm Calm - N/A Fog Fog
12:35 AM 55.4 °F 55.4 °F 100% 30.11 in 0.2 mi Calm Calm - N/A Fog Fog
12:55 AM 53.6 °F 53.6 °F 100% 30.10 in 0.2 mi Calm Calm - N/A Fog Fog
1:15 AM 51.8 °F 51.8 °F 100% 30.11 in 0.2 mi Calm Calm - N/A Fog Fog
1:35 AM 51.8 °F 51.8 °F 100% 30.11 in 0.2 mi Calm Calm - N/A Fog Fog
1:55 AM 51.8 °F 51.8 °F 100% 30.11 in 0.2 mi Calm Calm - N/A Fog Fog
2:15 AM 53.6 °F 53.6 °F 100% 30.11 in 0.2 mi Calm Calm - N/A Fog Fog
2:35 AM 53.6 °F 53.6 °F 100% 30.11 in 0.5 mi Calm Calm - N/A Fog Fog
2:55 AM 53.6 °F 53.6 °F 100% 30.11 in 0.8 mi Calm Calm - N/A   Overcast
3:15 AM 53.6 °F 53.6 °F 100% 30.10 in 0.2 mi Calm Calm - N/A Fog Fog
3:35 AM 53.6 °F 53.6 °F 100% 30.09 in 0.2 mi Calm Calm - N/A Fog Fog
3:55 AM 53.6 °F 53.6 °F 100% 30.08 in 0.2 mi Calm Calm - N/A Fog Fog
4:15 AM 53.6 °F 53.6 °F 100% 30.08 in 0.2 mi NW 3.5 mph - N/A Fog Fog
4:35 AM 53.6 °F 53.6 °F 100% 30.08 in 0.2 mi Calm Calm - N/A Fog Fog
4:55 AM 53.6 °F 53.6 °F 100% 30.07 in 0.2 mi Calm Calm - N/A Fog Fog
5:15 AM 53.6 °F 53.6 °F 100% 30.07 in 0.2 mi Calm Calm - N/A Fog Fog
5:35 AM 53.6 °F 53.6 °F 100% 30.08 in 0.2 mi Calm Calm - N/A Fog Fog
5:55 AM 53.6 °F 53.6 °F 100% 30.08 in 0.2 mi Calm Calm - N/A Fog Fog
6:15 AM 53.6 °F 53.6 °F 100% 30.09 in 0.2 mi Calm Calm - N/A Fog Fog
6:35 AM 53.6 °F 53.6 °F 100% 30.09 in 0.2 mi Calm Calm - N/A Fog Fog
6:55 AM 53.6 °F 53.6 °F 100% 30.09 in 0.5 mi Calm Calm - N/A Fog Fog
7:15 AM 53.6 °F 53.6 °F 100% 30.09 in 0.8 mi Calm Calm - N/A   Overcast
7:35 AM 53.6 °F 53.6 °F 100% 30.10 in 0.8 mi Calm Calm - N/A   Overcast
7:55 AM 53.6 °F 53.6 °F 100% 30.09 in 0.2 mi Calm Calm - N/A Fog Fog
8:15 AM 53.6 °F 53.6 °F 100% 30.10 in 0.5 mi Calm Calm - N/A Fog Fog
8:35 AM 53.6 °F 53.6 °F 100% 30.11 in 0.2 mi Calm Calm - N/A Fog Fog
8:55 AM 55.4 °F 55.4 °F 100% 30.12 in 0.8 mi Calm Calm - N/A   Overcast
9:15 AM 57.2 °F 57.2 °F 100% 30.12 in 4.0 mi Calm Calm - N/A   Overcast
9:35 AM 59.0 °F 59.0 °F 100% 30.13 in 5.0 mi Calm Calm - N/A   Overcast
9:55 AM 60.8 °F 60.8 °F 100% 30.13 in 7.0 mi WSW 3.5 mph - N/A   Overcast
10:15 AM 60.8 °F 60.8 °F 100% 30.13 in 10.0 mi SW 5.8 mph - N/A   Scattered Clouds
10:35 AM 62.6 °F 62.6 °F 100% 30.12 in 10.0 mi SW 6.9 mph - N/A   Scattered Clouds
10:55 AM 62.6 °F 62.6 °F 100% 30.12 in 10.0 mi WSW 3.5 mph - N/A   Scattered Clouds
11:15 AM 64.4 °F 60.8 °F 88% 30.11 in 10.0 mi SW 6.9 mph - N/A   Scattered Clouds
11:35 AM 66.2 °F 59.0 °F 78% 30.10 in 10.0 mi SW 4.6 mph - N/A   Clear
11:55 AM 68.0 °F 59.0 °F 73% 30.09 in 10.0 mi WSW 6.9 mph - N/A   Clear
12:15 PM 69.8 °F 59.0 °F 68% 30.08 in 10.0 mi SSW 6.9 mph - N/A   Scattered Clouds
12:35 PM 69.8 °F 59.0 °F 68% 30.07 in 10.0 mi SW 8.1 mph 17.3 mph N/A   Scattered Clouds
12:55 PM 71.6 °F 59.0 °F 64% 30.06 in 10.0 mi WSW 4.6 mph - N/A   Scattered Clouds
1:15 PM 71.6 °F 59.0 °F 64% 30.06 in 10.0 mi WSW 8.1 mph - N/A   Scattered Clouds
1:35 PM 71.6 °F 59.0 °F 64% 30.05 in 10.0 mi WSW 5.8 mph - N/A   Clear
1:55 PM 71.6 °F 59.0 °F 64% 30.04 in 10.0 mi SW 8.1 mph - N/A   Scattered Clouds
2:15 PM 73.4 °F 57.2 °F 57% 30.04 in 10.0 mi SSW 6.9 mph - N/A   Clear
2:35 PM 73.4 °F 57.2 °F 57% 30.04 in 10.0 mi SSW 10.4 mph - N/A   Clear
2:55 PM 73.4 °F 57.2 °F 57% 30.05 in 10.0 mi SW 6.9 mph - N/A   Scattered Clouds
3:15 PM 73.4 °F 57.2 °F 57% 30.04 in 10.0 mi SW 8.1 mph - N/A   Scattered Clouds
3:35 PM 71.6 °F 57.2 °F 60% 30.05 in 10.0 mi SSW 10.4 mph 19.6 mph N/A   Scattered Clouds
3:55 PM 71.6 °F 57.2 °F 60% 30.06 in 10.0 mi SSW 6.9 mph - N/A   Scattered Clouds
4:15 PM 71.6 °F 57.2 °F 60% 30.06 in 10.0 mi SSW 4.6 mph - N/A   Clear
4:35 PM 71.6 °F 57.2 °F 60% 30.06 in 10.0 mi SSW 6.9 mph - N/A   Clear
4:55 PM 69.8 °F 57.2 °F 64% 30.06 in 10.0 mi South 5.8 mph - N/A   Clear
5:15 PM 69.8 °F 59.0 °F 68% 30.06 in 10.0 mi South 3.5 mph - N/A   Clear
5:35 PM 69.8 °F 59.0 °F 68% 30.06 in 10.0 mi SSW 4.6 mph - N/A   Clear
5:55 PM 68.0 °F 59.0 °F 73% 30.07 in 10.0 mi SSW 3.5 mph - N/A   Clear
6:15 PM 68.0 °F 59.0 °F 73% 30.07 in 10.0 mi SSW 4.6 mph - N/A   Clear
6:35 PM 66.2 °F 57.2 °F 73% 30.07 in 10.0 mi South 4.6 mph - N/A   Clear
6:55 PM 66.2 °F 59.0 °F 78% 30.06 in 10.0 mi South 3.5 mph - N/A   Clear
7:15 PM 66.2 °F 57.2 °F 73% 30.07 in 10.0 mi SSW 5.8 mph - N/A   Clear
7:35 PM 66.2 °F 59.0 °F 78% 30.06 in 10.0 mi South 4.6 mph - N/A   Clear
7:55 PM 66.2 °F 59.0 °F 78% 30.06 in 10.0 mi South 4.6 mph - N/A   Clear
8:15 PM 66.2 °F 59.0 °F 78% 30.06 in 10.0 mi South 3.5 mph - N/A   Scattered Clouds
8:35 PM 66.2 °F 59.0 °F 78% 30.06 in 10.0 mi South 3.5 mph - N/A   Scattered Clouds
8:55 PM 66.2 °F 59.0 °F 78% 30.06 in 10.0 mi Calm Calm - N/A   Scattered Clouds
9:15 PM 66.2 °F 59.0 °F 78% 30.06 in 10.0 mi Calm Calm - N/A   Scattered Clouds
9:35 PM 64.4 °F 60.8 °F 88% 30.06 in 10.0 mi Calm Calm - N/A   Scattered Clouds
9:55 PM 64.4 °F 62.6 °F 94% 30.06 in 10.0 mi Calm Calm - N/A   Scattered Clouds
10:15 PM 64.4 °F 62.6 °F 94% 30.06 in 10.0 mi Calm Calm - N/A   Clear
10:35 PM 62.6 °F 62.6 °F 100% 30.06 in 10.0 mi Calm Calm - N/A   Clear
10:55 PM 62.6 °F 62.6 °F 100% 30.06 in 10.0 mi Calm Calm - N/A   Clear
11:15 PM 62.6 °F 62.6 °F 100% 30.07 in 10.0 mi South 3.5 mph - N/A   Clear
11:35 PM 62.6 °F 62.6 °F 100% 30.08 in 10.0 mi South 3.5 mph - N/A   Clear
11:55 PM 64.4 °F 64.4 °F 100% 30.08 in 10.0 mi South 3.5 mph - N/A   Clear